FW7253 Weather Reports


time (UTC)temp
C
wind
direction
speed
KPH
gust
KPH
rain 1hr
cm
rain 24hr
cm
rain mn
cm
humidity
%
barometer
mb
20260510152536 10 174 16.1 29.0 0.00 0.53 0.53 75 1008.5
20260510152035 10 214 14.5 29.0 0.00 0.53 0.53 73 1008.6
20260510151544 9 202 16.1 24.1 0.00 0.53 0.53 75 1008.7
20260510151033 9 224 17.7 24.1 0.00 0.53 0.53 74 1008.8
20260510150533 9 212 16.1 24.1 0.00 0.53 0.53 72 1008.8
20260510150044 9 208 16.1 24.1 0.00 0.53 0.53 70 1008.9
20260510145533 10 221 14.5 24.1 0.00 0.53 0.53 72 1008.9
20260510145034 10 236 14.5 24.1 0.00 0.53 0.53 74 1008.8
20260510144548 10 188 14.5 19.3 0.00 0.53 0.53 69 1008.9
20260510144034 10 226 14.5 19.3 0.00 0.53 0.53 63 1008.9
20260510143535 10 221 8.0 16.1 0.00 0.53 0.53 64 1009.0
20260510143039 10 209 9.7 16.1 0.00 0.53 0.53 64 1009.0
20260510142533 10 217 8.0 14.5 0.00 0.53 0.53 61 1009.1
20260510142035 10 0 3.2 11.3 0.00 0.53 0.53 63 1009.2
20260510141554 10 172 4.8 12.9 0.00 0.53 0.53 66 1009.2
20260510141034 10 169 6.4 12.9 0.00 0.53 0.53 63 1009.2
20260510140533 11 235 4.8 14.5 0.00 0.53 0.53 64 1009.3
20260510140049 10 153 4.8 14.5 0.00 0.53 0.53 65 1009.4
20260510135533 10 146 6.4 14.5 0.00 0.53 0.53 64 1009.5
20260510135033 10 121 4.8 9.7 0.00 0.53 0.53 64 1009.7
20260510134544 10 136 4.8 9.7 0.00 0.53 0.53 65 1009.7
20260510134033 10 142 3.2 9.7 0.00 0.53 0.53 63 1009.8
20260510133533 10 225 1.6 8.0 0.00 0.53 0.53 63 1009.8
20260510133100 10 165 0.0 8.0 0.00 0.53 0.53 64 1009.9
20260510132533 10 143 1.6 16.1 0.00 0.53 0.53 65 1010.0
20260510132034 10 198 6.4 16.1 0.00 0.53 0.53 64 1010.0
20260510131600 10 215 11.3 17.7 0.00 0.53 0.53 63 1010.0
20260510131034 10 188 3.2 17.7 0.00 0.53 0.53 63 1010.1
20260510130534 11 129 8.0 17.7 0.00 0.53 0.53 65 1010.1
20260510130038 11 208 3.2 6.4 0.00 0.53 0.53 65 1010.3
20260510125533 10 136 0.0 6.4 0.00 0.53 0.53 63 1010.1
20260510125033 9 295 0.0 12.9 0.00 0.53 0.53 66 1010.2
20260510124546 9 264 3.2 12.9 0.00 0.53 0.53 66 1010.3
20260510124033 10 165 3.2 12.9 0.00 0.53 0.53 62 1010.3
20260510123534 10 160 0.0 8.0 0.00 0.53 0.53 63 1010.4
20260510123057 10 214 1.6 9.7 0.00 0.53 0.53 62 1010.4
20260510122534 10 227 3.2 9.7 0.00 0.53 0.53 65 1010.6
20260510122036 10 206 1.6 6.4 0.00 0.53 0.53 71 1010.7
20260510121543 9 0 3.2 8.0 0.00 0.53 0.53 68 1010.8
20260510121034 10 222 1.6 8.0 0.00 0.53 0.53 63 1010.8
20260510120533 10 0 1.6 11.3 0.00 0.53 0.53 68 1010.9
20260510120043 10 173 4.8 12.9 0.00 0.53 0.53 67 1011.0
20260510115536 10 208 6.4 12.9 0.00 0.53 0.53 72 1011.0
20260510115033 10 176 4.8 11.3 0.00 0.53 0.53 68 1011.0
20260510114539 10 0 0.0 8.0 0.00 0.53 0.53 68 1011.2
20260510114036 10 0 3.2 8.0 0.00 0.53 0.53 65 1011.2
20260510113533 9 159 0.0 14.5 0.00 0.53 0.53 71 1011.3
20260510113046 9 107 8.0 14.5 0.00 0.53 0.53 68 1011.4
20260510112533 9 131 1.6 11.3 0.00 0.53 0.53 69 1011.5
20260510112034 9 136 0.0 8.0 0.00 0.53 0.53 68 1011.7
20260510111544 9 301 3.2 8.0 0.00 0.53 0.53 69 1011.8
20260510111033 8 0 0.0 6.4 0.00 0.53 0.53 71 1012.0
20260510110534 8 316 1.6 6.4 0.00 0.53 0.53 72 1012.0
20260510110045 8 0 0.0 6.4 0.00 0.53 0.53 70 1012.0
20260510105533 8 0 1.6 9.7 0.00 0.53 0.53 74 1012.1
20260510105033 8 0 0.0 9.7 0.00 0.53 0.53 71 1012.1
20260510104544 7 0 0.0 8.0 0.00 0.53 0.53 72 1012.3
20260510104033 8 45 0.0 12.9 0.00 0.53 0.53 75 1012.3
20260510103533 8 321 4.8 12.9 0.00 0.53 0.53 72 1012.4
20260510103043 8 115 0.0 12.9 0.00 0.53 0.53 78 1012.4
20260510102534 7 0 0.0 12.9 0.00 0.53 0.53 76 1012.5
20260510102034 7 345 4.8 12.9 0.00 0.53 0.53 82 1012.5
20260510101540 6 0 3.2 9.7 0.00 0.53 0.53 80 1012.6
20260510101032 6 322 0.0 11.3 0.00 0.53 0.53 81 1012.9
20260510100534 6 0 1.6 11.3 0.00 0.53 0.53 82 1012.7
20260510100035 6 351 6.4 11.3 0.00 0.53 0.53 80 1012.9
20260510095534 6 337 1.6 9.7 0.00 0.53 0.53 82 1013.0
20260510095033 6 338 1.6 9.7 0.00 0.53 0.53 82 1013.0
20260510094546 6 323 1.6 9.7 0.00 0.53 0.53 82 1013.0
20260510094033 6 324 4.8 14.5 0.00 0.53 0.53 86 1013.0
20260510093533 6 335 6.4 14.5 0.00 0.53 0.53 83 1013.1
20260510093042 6 0 0.0 9.7 0.00 0.53 0.53 85 1013.2
20260510092536 6 0 0.0 9.7 0.00 0.53 0.53 85 1013.2
20260510092034 6 0 3.2 11.3 0.00 0.53 0.53 85 1013.2
20260510091540 6 338 0.0 11.3 0.00 0.53 0.53 84 1013.4
20260510091033 6 335 3.2 11.3 0.00 0.53 0.53 88 1013.3
20260510090534 5 319 4.8 16.1 0.03 0.53 0.53 88 1013.5
20260510090042 5 338 8.0 16.1 0.00 0.51 0.51 88 1013.6
20260510085533 4 340 9.7 17.7 0.00 0.51 0.51 88 1013.6
20260510085033 4 342 9.7 17.7 0.03 0.51 0.51 88 1013.7
20260510084540 4 359 3.2 14.5 0.03 0.51 0.51 89 1013.7
20260510084033 4 360 1.6 14.5 0.05 0.51 0.51 89 1013.8
20260510083535 4 1 6.4 14.5 0.05 0.51 0.51 90 1013.8
20260510083039 4 359 4.8 11.3 0.08 0.51 0.51 90 1013.8
20260510082534 3 12 4.8 12.9 0.08 0.51 0.51 90 1013.9
20260510082032 3 324 4.8 12.9 0.10 0.51 0.51 90 1014.0
20260510081544 3 292 8.0 12.9 0.13 0.51 0.51 90 1014.1
20260510081034 3 333 6.4 12.9 0.15 0.51 0.51 90 1014.2
20260510080533 3 345 4.8 14.5 0.15 0.48 0.48 90 1014.2
20260510080038 3 338 6.4 14.5 0.15 0.48 0.48 90 1014.3
20260510075535 3 6 8.0 14.5 0.15 0.46 0.46 90 1014.3
20260510075035 3 318 4.8 17.7 0.15 0.46 0.46 91 1014.4
20260510074543 3 325 9.7 17.7 0.18 0.46 0.46 91 1014.5
20260510074035 3 316 6.4 12.9 0.15 0.46 0.46 91 1014.4
20260510073535 3 340 6.4 12.9 0.15 0.46 0.46 91 1014.4
20260510073101 3 328 8.0 12.9 0.15 0.43 0.43 91 1014.4
20260510072533 3 343 6.4 16.1 0.13 0.41 0.41 91 1014.4
20260510072035 3 340 8.0 16.1 0.13 0.38 0.38 91 1014.4
20260510071542 3 331 6.4 11.3 0.13 0.36 0.36 91 1014.5
20260510071032 3 342 6.4 9.7 0.10 0.36 0.36 91 1014.6
20260510070532 3 307 4.8 11.3 0.10 0.33 0.33 91 1014.6
20260510070051 3 338 6.4 14.5 0.13 0.33 0.33 91 1014.7
20260510065536 3 6 6.4 14.5 0.10 0.30 0.30 91 1014.7
20260510065037 3 330 6.4 17.7 0.13 0.30 0.30 91 1014.6
20260510064553 3 356 4.8 17.7 0.13 0.28 0.28 91 1014.7
20260510064033 3 321 9.7 17.7 0.13 0.28 0.28 91 1014.7
20260510063532 3 326 6.4 17.7 0.13 0.28 0.28 91 1014.7
20260510063047 3 334 9.7 17.7 0.13 0.28 0.28 91 1014.8
20260510062533 3 297 4.8 11.3 0.10 0.25 0.25 91 1014.7
20260510062033 3 330 8.0 11.3 0.10 0.25 0.25 91 1014.9
20260510061546 3 1 6.4 12.9 0.08 0.23 0.23 90 1014.8
20260510061033 3 342 8.0 12.9 0.10 0.23 0.23 90 1014.9
20260510060534 3 347 6.4 12.9 0.08 0.20 0.20 91 1014.7
20260510060042 3 330 8.0 16.1 0.08 0.18 0.18 90 1014.8
20260510055533 3 310 8.0 16.1 0.08 0.18 0.18 90 1014.8
20260510055036 3 330 9.7 14.5 0.08 0.18 0.18 91 1014.8
20260510054539 3 355 6.4 14.5 0.08 0.15 0.15 91 1014.8
20260510054035 3 326 6.4 14.5 0.08 0.15 0.15 91 1014.8
20260510053532 3 349 9.7 14.5 0.05 0.13 0.13 91 1014.7
20260510053047 3 339 6.4 17.7 0.05 0.13 0.13 91 1014.7
20260510052533 4 331 9.7 17.7 0.08 0.13 0.13 91 1014.8
20260510052035 4 4 6.4 12.9 0.08 0.13 0.13 91 1014.8
20260510051548 4 22 8.0 12.9 0.05 0.10 0.10 91 1014.7
20260510051037 4 15 6.4 17.7 0.05 0.10 0.10 91 1014.9
20260510050535 4 357 6.4 17.7 0.05 0.10 0.10 91 1014.9
20260510050046 4 351 4.8 9.7 0.08 0.10 0.10 91 1015.0
20260510045533 4 333 4.8 8.0 0.05 0.08 0.08 91 1015.0
20260510045035 4 347 3.2 14.5 0.05 0.08 0.08 91 1015.1
20260510044549 4 356 6.4 14.5 0.03 0.08 0.08 90 1015.2
20260510044033 4 338 6.4 12.9 0.05 0.08 0.08 90 1015.2
20260510043533 4 11 6.4 11.3 0.05 0.08 0.08 90 1015.1
20260510043041 4 15 6.4 11.3 0.05 0.08 0.08 90 1015.2
20260510042532 4 333 6.4 12.9 0.05 0.05 0.05 90 1015.2
20260510042032 4 331 8.0 14.5 0.05 0.05 0.05 90 1015.2
20260510041550 4 349 8.0 16.1 0.05 0.05 0.05 89 1015.3
20260510041033 4 344 9.7 16.1 0.05 0.05 0.05 89 1015.3
20260510040533 4 358 8.0 14.5 0.05 0.05 0.05 89 1015.4
20260510040053 5 334 8.0 14.5 0.03 0.03 0.03 89 1015.4
20260510035532 5 355 8.0 14.5 0.03 0.03 0.03 89 1015.5
20260510035032 5 350 8.0 14.5 0.03 0.03 0.03 89 1015.5
20260510034538 5 343 8.0 14.5 0.03 0.03 0.03 89 1015.6
20260510034033 5 345 4.8 14.5 0.00 0.00 0.00 88 1015.7
20260510033533 5 342 6.4 16.1 0.00 0.00 0.00 88 1015.7
20260510033047 5 22 8.0 16.1 0.00 0.00 0.00 88 1015.6
20260510032536 5 353 8.0 12.9 0.00 0.00 0.00 88 1015.8
20260510032036 5 330 8.0 12.9 0.00 0.00 0.00 88 1015.9
20260510031551 5 337 8.0 12.9 0.00 0.00 0.00 89 1016.0
20260510031034 5 27 6.4 11.3 0.00 0.00 0.00 89 1016.0
20260510030533 5 335 4.8 11.3 0.00 0.00 0.00 89 1016.0
20260510030043 5 346 6.4 9.7 0.00 0.00 0.00 89 1016.0
20260510025533 5 325 6.4 9.7 0.00 0.00 0.00 89 1016.0
20260510025035 5 343 6.4 12.9 0.00 0.00 0.00 89 1016.2
20260510024541 5 339 6.4 12.9 0.00 0.00 0.00 89 1016.2
20260510024033 5 325 6.4 12.9 0.00 0.00 0.00 89 1016.1
20260510023534 5 357 6.4 12.9 0.00 0.00 0.00 89 1016.1
20260510023039 5 335 6.4 12.9 0.00 0.00 0.00 89 1016.3
20260510022533 5 326 8.0 12.9 0.00 0.00 0.00 90 1016.4
20260510022032 5 347 6.4 9.7 0.00 0.00 0.00 90 1016.4
20260510021545 5 322 4.8 11.3 0.00 0.00 0.00 90 1016.4
20260510021033 5 340 4.8 11.3 0.00 0.00 0.00 89 1016.6
20260510020532 5 348 6.4 11.3 0.00 0.00 0.00 89 1016.5
20260510020046 5 355 4.8 8.0 0.00 0.00 0.00 89 1016.6
20260510015533 5 321 4.8 8.0 0.00 0.00 0.00 89 1016.5
20260510015036 5 336 4.8 8.0 0.00 0.00 0.00 89 1016.6
20260510014541 5 338 3.2 8.0 0.00 0.00 0.00 89 1016.5
20260510014034 5 345 3.2 3.2 0.00 0.00 0.00 88 1016.6
20260510013533 5 357 1.6 3.2 0.00 0.00 0.00 88 1016.7
20260510013041 5 5 0.0 1.6 0.00 0.00 0.00 87 1016.8
20260510012533 5 0 0.0 1.6 0.00 0.00 0.00 86 1016.7
20260510012034 6 0 0.0 1.6 0.00 0.00 0.00 85 1016.8
20260510011538 6 0 0.0 8.0 0.00 0.00 0.00 85 1016.7
20260510011032 6 0 1.6 8.0 0.00 0.00 0.00 84 1016.8
20260510010532 6 41 0.0 9.7 0.00 0.00 0.00 83 1016.8
20260510010038 6 78 1.6 9.7 0.00 0.00 0.00 82 1016.8
20260510005533 6 75 0.0 9.7 0.00 0.00 0.00 80 1017.0
20260510005032 6 356 1.6 9.7 0.00 0.00 0.00 80 1017.0
20260510004537 6 330 0.0 6.4 0.00 0.00 0.00 80 1016.9
20260510004040 6 0 0.0 6.4 0.00 0.00 0.00 81 1017.1
20260510003536 6 31 0.0 4.8 0.00 0.00 0.00 82 1017.1
20260510003049 5 0 1.6 9.7 0.00 0.00 0.00 83 1017.1
20260510002536 5 346 3.2 9.7 0.00 0.00 0.00 83 1017.1
20260510002036 5 343 4.8 9.7 0.00 0.00 0.00 84 1017.2
20260510001552 5 0 0.0 1.6 0.00 0.00 0.00 84 1017.3
20260510001035 5 0 0.0 1.6 0.00 0.00 0.00 85 1017.3
20260510000535 5 0 0.0 3.2 0.00 0.00 0.00 85 1017.4
20260510000044 5 0 0.0 3.2 0.00 0.00 0.00 85 1017.4
20260509235535 5 0 0.0 1.6 0.00 0.00 0.00 85 1017.6
20260509235035 5 0 0.0 1.6 0.00 0.00 0.00 84 1017.6
20260509234547 5 0 0.0 1.6 0.00 0.00 0.00 85 1017.6
20260509234035 5 0 0.0 1.6 0.00 0.00 0.00 85 1017.6
20260509233535 4 0 0.0 0.0 0.00 0.00 0.00 85 1017.6
20260509233052 4 0 0.0 1.6 0.00 0.00 0.00 85 1017.7
20260509232535 4 0 0.0 1.6 0.00 0.00 0.00 85 1017.7
20260509232035 4 0 0.0 1.6 0.00 0.00 0.00 85 1017.8
20260509231546 4 96 0.0 0.0 0.00 0.00 0.00 85 1017.7
20260509231034 4 0 0.0 0.0 0.00 0.00 0.00 84 1017.8
20260509230534 4 0 0.0 0.0 0.00 0.00 0.00 83 1017.8
20260509230045 4 0 0.0 0.0 0.00 0.00 0.00 83 1017.9
20260509225536 4 0 0.0 0.0 0.00 0.00 0.00 82 1017.9
20260509225038 4 0 0.0 0.0 0.00 0.00 0.00 82 1017.9
20260509224556 5 0 0.0 0.0 0.00 0.00 0.00 82 1017.9
20260509224035 5 0 0.0 0.0 0.00 0.00 0.00 81 1017.9
20260509223535 5 0 0.0 0.0 0.00 0.00 0.00 81 1017.9
20260509223050 5 0 0.0 0.0 0.00 0.00 0.00 81 1018.0
20260509222534 5 0 0.0 0.0 0.00 0.00 0.00 81 1018.1
20260509222036 5 0 0.0 0.0 0.00 0.00 0.00 80 1018.1
20260509221602 5 0 0.0 0.0 0.00 0.00 0.00 79 1018.2
20260509221035 5 0 0.0 0.0 0.00 0.00 0.00 79 1018.2
20260509220534 5 0 0.0 0.0 0.00 0.00 0.00 79 1018.2
20260509220049 5 0 0.0 0.0 0.00 0.00 0.00 78 1018.3
20260509215535 5 0 0.0 0.0 0.00 0.00 0.00 78 1018.3
20260509215035 5 0 0.0 0.0 0.00 0.00 0.00 78 1018.3
20260509214545 5 312 0.0 0.0 0.00 0.00 0.00 78 1018.4
20260509214037 5 0 0.0 0.0 0.00 0.00 0.00 77 1018.4
20260509213532 5 0 0.0 0.0 0.00 0.00 0.00 77 1018.4
20260509213045 5 0 0.0 1.6 0.00 0.00 0.00 77 1018.5
20260509212532 6 308 0.0 1.6 0.00 0.00 0.00 75 1018.4
20260509212033 6 189 0.0 1.6 0.00 0.00 0.00 74 1018.5
20260509211546 6 0 0.0 4.8 0.00 0.00 0.00 74 1018.5
20260509211033 6 98 0.0 4.8 0.00 0.00 0.00 73 1018.6
20260509210532 6 119 0.0 1.6 0.00 0.00 0.00 73 1018.6
20260509210044 6 128 0.0 3.2 0.00 0.00 0.00 72 1018.6
20260509205533 7 0 0.0 6.4 0.00 0.00 0.00 72 1018.7
20260509205033 7 97 3.2 6.4 0.00 0.00 0.00 71 1018.6
20260509204541 7 139 1.6 4.8 0.00 0.00 0.00 71 1018.7
20260509204033 7 115 0.0 4.8 0.00 0.00 0.00 71 1018.8
20260509203534 7 0 1.6 4.8 0.00 0.00 0.00 71 1018.8
20260509203043 7 141 1.6 8.0 0.00 0.00 0.00 71 1018.7
20260509202533 7 101 1.6 8.0 0.00 0.00 0.00 71 1018.8
20260509202034 7 126 1.6 6.4 0.00 0.00 0.00 71 1018.9
20260509201547 7 82 3.2 6.4 0.00 0.00 0.00 71 1018.7
20260509201035 7 149 3.2 6.4 0.00 0.00 0.00 69 1018.8
20260509200532 7 135 3.2 4.8 0.00 0.00 0.00 68 1018.8
20260509200045 7 120 1.6 4.8 0.00 0.00 0.00 67 1018.8
20260509195532 7 156 1.6 6.4 0.00 0.00 0.00 66 1018.9
20260509195032 7 177 1.6 8.0 0.00 0.00 0.00 66 1018.9
20260509194545 8 174 3.2 9.7 0.00 0.00 0.00 67 1018.9
20260509194033 8 183 4.8 9.7 0.00 0.00 0.00 65 1018.8
20260509193532 8 192 4.8 9.7 0.00 0.00 0.00 63 1018.8
20260509193044 8 195 4.8 8.0 0.00 0.00 0.00 63 1018.9
20260509192533 8 165 3.2 8.0 0.00 0.00 0.00 63 1018.9
20260509192033 8 219 3.2 6.4 0.00 0.00 0.00 62 1019.1
20260509191539 8 162 1.6 6.4 0.00 0.00 0.00 61 1019.0
20260509191035 9 0 1.6 4.8 0.00 0.00 0.00 60 1019.0
20260509190532 9 120 1.6 6.4 0.00 0.00 0.00 58 1019.0
20260509190043 9 174 3.2 6.4 0.00 0.00 0.00 57 1019.1
20260509185533 9 165 3.2 6.4 0.00 0.00 0.00 56 1019.1
20260509185033 9 166 1.6 4.8 0.00 0.00 0.00 55 1019.1
20260509184545 10 150 0.0 4.8 0.00 0.00 0.00 54 1019.2
20260509184032 10 193 1.6 3.2 0.00 0.00 0.00 54 1019.2
20260509183533 10 162 0.0 6.4 0.00 0.00 0.00 53 1019.3
20260509183047 10 0 0.0 9.7 0.00 0.00 0.00 53 1019.3
20260509182534 10 224 4.8 11.3 0.00 0.00 0.00 52 1019.3
20260509182034 10 191 8.0 17.7 0.00 0.00 0.00 52 1019.3
20260509181547 10 139 9.7 17.7 0.00 0.00 0.00 51 1019.2
20260509181035 10 175 3.2 12.9 0.00 0.00 0.00 51 1019.3
20260509180535 10 150 4.8 19.3 0.00 0.00 0.00 49 1019.3
20260509180050 10 206 12.9 19.3 0.00 0.00 0.00 48 1019.3
20260509175534 11 233 12.9 17.7 0.00 0.00 0.00 47 1019.2
20260509175034 11 201 8.0 16.1 0.00 0.00 0.00 46 1019.2
20260509174539 11 221 4.8 19.3 0.00 0.00 0.00 46 1019.2
20260509174034 11 217 11.3 22.5 0.00 0.00 0.00 45 1019.3
20260509173535 11 218 14.5 27.4 0.00 0.00 0.00 44 1019.3
20260509173048 11 227 16.1 27.4 0.00 0.00 0.00 42 1019.3
20260509172536 11 169 16.1 27.4 0.00 0.00 0.00 42 1019.4
20260509172035 11 225 16.1 30.6 0.00 0.00 0.00 42 1019.5
20260509171551 11 224 17.7 30.6 0.00 0.00 0.00 41 1019.5
20260509171034 12 141 20.9 29.0 0.00 0.00 0.00 41 1019.6
20260509170534 12 214 19.3 29.0 0.00 0.00 0.00 41 1019.7
20260509170047 12 204 16.1 29.0 0.00 0.00 0.00 41 1019.7
20260509165534 12 127 17.7 33.8 0.00 0.00 0.00 41 1019.6
20260509165038 12 217 16.1 33.8 0.00 0.00 0.00 39 1019.6
20260509164550 12 248 17.7 33.8 0.00 0.00 0.00 39 1019.7
20260509164035 12 220 20.9 33.8 0.00 0.00 0.00 39 1019.7
20260509163537 12 202 17.7 40.2 0.00 0.00 0.00 39 1019.7
20260509163042 12 177 19.3 40.2 0.00 0.00 0.00 39 1019.9
20260509162534 12 200 27.4 40.2 0.00 0.00 0.00 37 1020.0
20260509162035 12 199 16.1 38.6 0.00 0.00 0.00 38 1019.9
20260509161541 13 205 25.7 40.2 0.00 0.00 0.00 37 1020.2
20260509161034 13 236 17.7 40.2 0.00 0.00 0.00 37 1020.2
20260509160535 13 231 22.5 37.0 0.00 0.00 0.00 38 1020.2
20260509160051 13 236 24.1 37.0 0.00 0.00 0.00 38 1020.2
20260509155535 13 228 24.1 37.0 0.00 0.00 0.00 37 1020.3
20260509155034 13 206 20.9 33.8 0.00 0.00 0.00 36 1020.3
20260509154539 13 224 22.5 32.2 0.00 0.00 0.00 36 1020.4
20260509154034 13 205 19.3 33.8 0.00 0.00 0.00 34 1020.3
20260509153537 13 240 25.7 33.8 0.00 0.00 0.00 35 1020.4
20260509153053 13 263 22.5 32.2 0.00 0.00 0.00 34 1020.4